Location: D�pe
(52.6057°N, 8.1808°E)
Time: 12:49:04
(UTC+00:00)

Cosmos 2360 - Pass Details

Date: 29 October 2020
Orbit: 848 x 854 km, 70.8° (Epoch: 28 November)

Event Time Altitude Azimuth Distance (km) Brightness Sun altitude
Rises 17:53:59 0° 187° (S) 3,413 7.5 -17.4°
Reaches altitude 10° 17:56:31 10° 182° (S) 2,480 6.6 -17.8°
Maximum altitude 18:01:54 45° 111° (ESE) 1,153 4.5 -18.6°
Enters shadow 18:04:34 27° 56° (NE) 1,591 5.2 -19.0°
